Adrian, MI

9:02 AM EDT on September 22, 2017 (GMT -0400)
Lenawee County

Weather History for KADG - January, 2013

Change the Weather History Date:

Friday, January 11, 2013

  Actual Average Record
Temperature  
Mean Temperature 45 °F -  
Max Temperature 55 °F 30 °F 56 °F (1975)
Min Temperature 35 °F 12 °F -17 °F (1982)
Degree Days  
Heating Degree Days 20    
Moisture  
Dew Point 41 °F    
Average Humidity 92    
Maximum Humidity 100    
Minimum Humidity 72    
Precipitation  
Precipitation 0.37 in - - ()
Sea Level Pressure  
Sea Level Pressure 29.90 in    
Wind  
Wind Speed 9 mph (South)    
Max Wind Speed 16 mph    
Max Gust Speed 23 mph    
Visibility 6 miles    
Events Fog , Rain    
Averages and records for this station are not official NWS values.
T = Trace of Precipitation, MM = Missing Value Source: NWS Daily Summary

Daily Weather History Graph

Daily Weather History Graph

Search for Another Location

Airport or City:

Trip Planner

Search our weather history database for the weather conditions in past years. The results will help you decide how hot, cold, wet, or windy it might be!

Date:

Astronomy

Jan. 11, 2013 Rise Set
Actual Time 8:02 AM EST 5:26 PM EST
Civil Twilight 7:31 AM EST 5:57 PM EST
Nautical Twilight 6:57 AM EST 6:31 PM EST
Astronomical Twilight 6:23 AM EST 7:05 PM EST
Moon 7:34 AM EST (1/11) 5:43 PM EST (1/11)
Length of Visible Light 10h 25m
Length of Day
9h 23m
Waning Crescent, 0% of the Moon is Illuminated
Jan 11
Waning Crescent
Jan 11
New
Jan 18
First Quarter
Jan 26
Full
Feb 3
Last Quarter

Hourly Weather History & Observations

Time (EST) Temp. Windchill Dew Point Humidity Pressure Visibility Wind Dir Wind Speed Gust Speed Precip Events Conditions
12:07 AM 35.6 °F 28.0 °F 33.8 °F 93% 30.14 in 3.0 mi East 10.4 mph - 0.03 in Rain Light Rain
12:53 AM 35.1 °F 28.6 °F 33.1 °F 92% 30.15 in 7.0 mi ESE 8.1 mph - 0.03 in   Overcast
1:22 AM 35.6 °F 28.0 °F 33.8 °F 93% 30.10 in 6.0 mi ESE 10.4 mph - 0.00 in Rain Light Rain
1:53 AM 35.1 °F 27.4 °F 33.1 °F 92% 30.11 in 4.0 mi ESE 10.4 mph - 0.08 in Rain Rain
2:53 AM 35.1 °F 30.1 °F 33.1 °F 92% 30.09 in 5.0 mi ESE 5.8 mph - 0.07 in Rain Light Rain
3:53 AM 35.1 °F 28.6 °F 33.1 °F 92% 30.04 in 4.0 mi East 8.1 mph - 0.02 in   Overcast
4:53 AM 35.1 °F 29.3 °F 33.1 °F 92% 29.99 in 5.0 mi East 6.9 mph - 0.00 in Rain Light Rain
5:53 AM 35.1 °F 29.3 °F 34.0 °F 96% 29.96 in 5.0 mi East 6.9 mph - 0.01 in Rain Light Rain
6:26 AM 35.6 °F 32.8 °F 33.8 °F 93% 29.93 in 2.5 mi East 3.5 mph - 0.05 in Rain Rain
7:09 AM 35.6 °F 29.9 °F 35.6 °F 100% 29.93 in 2.0 mi SE 6.9 mph - 0.10 in Rain Rain
7:25 AM 35.6 °F 30.7 °F 35.6 °F 100% 29.91 in 2.0 mi SE 5.8 mph - 0.14 in Rain Light Rain
7:30 AM 35.6 °F 31.7 °F 35.6 °F 100% 29.91 in 2.0 mi ESE 4.6 mph - 0.14 in Rain Light Rain
7:43 AM 35.6 °F 30.7 °F 35.6 °F 100% 29.89 in 2.0 mi ESE 5.8 mph - 0.16 in Rain Light Rain
7:46 AM 35.6 °F 30.7 °F 35.6 °F 100% 29.89 in 2.0 mi SE 5.8 mph - 0.16 in Rain Light Rain
7:53 AM 36.0 °F 30.3 °F 35.1 °F 97% 29.91 in 2.0 mi SE 6.9 mph - 0.16 in Rain Light Rain
8:02 AM 37.4 °F 32.8 °F 35.6 °F 93% 29.88 in 1.8 mi SSE 5.8 mph - 0.00 in Rain Light Rain
8:18 AM 37.4 °F 32.1 °F 37.4 °F 100% 29.88 in 1.2 mi South 6.9 mph - 0.00 in   Overcast
8:32 AM 41.0 °F 34.7 °F 39.2 °F 93% 29.85 in 0.8 mi South 10.4 mph - 0.00 in   Overcast
8:39 AM 42.8 °F 35.8 °F 41.0 °F 93% 29.84 in 1.0 mi South 13.8 mph - 0.00 in   Overcast
8:46 AM 42.8 °F 35.8 °F 41.0 °F 93% 29.82 in 0.5 mi SSE 13.8 mph - 0.00 in Fog , Rain Light Rain
8:53 AM 42.1 °F 34.5 °F 42.1 °F 100% 29.83 in 0.2 mi SSE 15.0 mph 20.7 mph 0.00 in Fog , Rain Light Rain
9:19 AM 44.6 °F 37.4 °F 44.6 °F 100% 29.81 in 1.8 mi SSW 16.1 mph - 0.00 in   Overcast
9:21 AM 46.4 °F 40.1 °F 44.6 °F 93% 29.81 in 3.0 mi SSW 15.0 mph - 0.00 in   Overcast
9:53 AM 46.9 °F - 46.0 °F 97% 29.84 in 6.0 mi SW 11.5 mph - 0.00 in   Overcast
10:53 AM 48.0 °F - 46.9 °F 96% 29.86 in 8.0 mi SW 9.2 mph - N/A   Overcast
11:46 AM 50.0 °F - 48.2 °F 94% 29.82 in 8.0 mi SW 15.0 mph - 0.00 in   Overcast
11:53 AM 50.0 °F - 48.0 °F 93% 29.83 in 9.0 mi SW 13.8 mph - 0.00 in   Overcast
12:53 PM 53.1 °F - 50.0 °F 89% 29.82 in 10.0 mi WSW 12.7 mph 20.7 mph N/A   Overcast
1:51 PM 53.6 °F - 50.0 °F 88% 29.80 in 10.0 mi WSW 11.5 mph 20.7 mph N/A   Mostly Cloudy
1:53 PM 54.0 °F - 50.0 °F 86% 29.82 in 10.0 mi WSW 12.7 mph - N/A   Mostly Cloudy
2:08 PM 55.4 °F - 51.8 °F 88% 29.80 in 10.0 mi WSW 11.5 mph 23.0 mph N/A   Partly Cloudy
3:16 PM 55.4 °F - 48.2 °F 77% 29.83 in 10.0 mi West 11.5 mph 21.9 mph N/A   Mostly Cloudy
3:41 PM 55.4 °F - 46.4 °F 72% 29.84 in 10.0 mi West 13.8 mph 21.9 mph N/A   Overcast
3:53 PM 55.0 °F - 46.0 °F 72% 29.86 in 10.0 mi West 11.5 mph 19.6 mph N/A   Scattered Clouds
4:53 PM 54.0 °F - 46.0 °F 75% 29.88 in 10.0 mi WSW 10.4 mph - N/A   Clear
5:53 PM 50.0 °F - 45.0 °F 83% 29.90 in 10.0 mi WSW 5.8 mph - N/A   Partly Cloudy
6:53 PM 45.0 °F 42.6 °F 43.0 °F 93% 29.91 in 10.0 mi SSW 4.6 mph - N/A   Partly Cloudy
7:53 PM 46.9 °F - 44.1 °F 90% 29.91 in 10.0 mi SW 8.1 mph - N/A   Clear
8:53 PM 46.9 °F - 44.1 °F 90% 29.90 in 10.0 mi SSW 9.2 mph - N/A   Clear
9:53 PM 46.9 °F - 44.1 °F 90% 29.90 in 10.0 mi SSW 9.2 mph - N/A   Clear
10:53 PM 46.0 °F 42.5 °F 44.1 °F 93% 29.88 in 10.0 mi SSW 6.9 mph - N/A   Clear
11:53 PM 46.9 °F - 44.1 °F 90% 29.87 in 10.0 mi SSW 10.4 mph - N/A   Clear